DLH5GM EDDF-EDDH

Flight info

Callsign DLH5GM
Flight time 0h 45m
Altitude 35000
Route MARUN3W MARUN Y150 TOLGI DCT SAS/N0450F340 P605 NOLGO NOLGO3P
Aircraft A320/M-SDE3FGHIRWY/LB1

Departure

Time 2026-04-16 22:30
Airport Frankfurt Main Airport (EDDF)

Arrival

Time 2026-04-16 23:16
Airport Hamburg Helmut Schmidt Airport (EDDH)
Time Latitude Longitude Altitude Speed Heading
2026-04-16 22:07 50.03613 8.53796 346 ft 0 kts 159°
2026-04-16 22:19 50.03614 8.53796 346 ft 1 kts 159°
2026-04-16 22:19 50.03627 8.53788 359 ft 3 kts 156°
2026-04-16 22:19 50.03645 8.53774 353 ft 3 kts 150°
2026-04-16 22:20 50.03662 8.53757 356 ft 3 kts 139°
2026-04-16 22:20 50.03676 8.53735 355 ft 3 kts 111°
2026-04-16 22:20 50.03678 8.53715 355 ft 1 kts 70°
2026-04-16 22:20 50.03678 8.53713 355 ft 0 kts 69°
2026-04-16 22:22 50.03678 8.53714 346 ft 1 kts 69°
2026-04-16 22:22 50.03697 8.53793 352 ft 9 kts 69°
2026-04-16 22:23 50.03722 8.53894 351 ft 12 kts 69°
2026-04-16 22:23 50.03751 8.54014 350 ft 12 kts 69°
2026-04-16 22:23 50.03777 8.54124 349 ft 10 kts 69°
2026-04-16 22:23 50.03804 8.54233 352 ft 15 kts 69°
2026-04-16 22:24 50.03754 8.54363 351 ft 13 kts 158°
2026-04-16 22:24 50.03697 8.54443 348 ft 11 kts 98°
2026-04-16 22:24 50.03720 8.54573 354 ft 17 kts 69°
2026-04-16 22:24 50.03766 8.54765 351 ft 20 kts 69°
2026-04-16 22:25 50.03819 8.54980 351 ft 22 kts 70°
2026-04-16 22:25 50.03866 8.55183 346 ft 20 kts 70°
2026-04-16 22:25 50.03917 8.55393 352 ft 22 kts 69°
2026-04-16 22:25 50.03972 8.55627 353 ft 24 kts 70°
2026-04-16 22:26 50.04015 8.55804 351 ft 16 kts 69°
2026-04-16 22:26 50.04057 8.55984 352 ft 20 kts 70°
2026-04-16 22:26 50.04109 8.56196 351 ft 22 kts 69°
2026-04-16 22:26 50.04162 8.56423 351 ft 23 kts 70°
2026-04-16 22:27 50.04220 8.56666 354 ft 25 kts 70°
2026-04-16 22:27 50.04273 8.56885 348 ft 17 kts 69°
2026-04-16 22:27 50.04315 8.57067 350 ft 19 kts 70°
2026-04-16 22:27 50.04366 8.57266 348 ft 19 kts 73°
2026-04-16 22:28 50.04333 8.57389 347 ft 9 kts 78°
2026-04-16 22:28 50.04398 8.57479 351 ft 16 kts 45°
2026-04-16 22:28 50.04403 8.57641 351 ft 17 kts 138°
2026-04-16 22:28 50.04303 8.57708 350 ft 12 kts 165°
2026-04-16 22:29 50.04266 8.57660 351 ft 0 kts 246°
2026-04-16 22:29 50.04265 8.57658 351 ft 2 kts 246°
2026-04-16 22:29 50.04189 8.57344 351 ft 72 kts 250°
2026-04-16 22:29 50.03931 8.56259 354 ft 138 kts 250°
2026-04-16 22:30 50.03537 8.54693 684 ft 163 kts 249°
2026-04-16 22:30 50.03159 8.52997 1462 ft 168 kts 251°
2026-04-16 22:30 50.02815 8.51267 2222 ft 172 kts 248°
2026-04-16 22:30 50.02243 8.49602 2915 ft 178 kts 230°
2026-04-16 22:31 50.01283 8.48291 3490 ft 191 kts 210°
2026-04-16 22:31 49.99981 8.47630 4027 ft 205 kts 185°
2026-04-16 22:31 49.98530 8.47494 4713 ft 211 kts 186°
2026-04-16 22:31 49.97060 8.47249 5638 ft 213 kts 188°
2026-04-16 22:32 49.95595 8.46835 6440 ft 222 kts 197°
2026-04-16 22:32 49.94033 8.46142 6963 ft 243 kts 198°
2026-04-16 22:32 49.92411 8.45257 7768 ft 250 kts 211°
2026-04-16 22:32 49.91152 8.43412 8673 ft 253 kts 240°
2026-04-16 22:33 49.90627 8.40854 9590 ft 256 kts 268°
2026-04-16 22:33 49.90981 8.38123 10505 ft 261 kts 296°
2026-04-16 22:33 49.92173 8.36001 11383 ft 266 kts 325°
2026-04-16 22:33 49.93852 8.34756 12028 ft 281 kts 335°
2026-04-16 22:34 49.95733 8.33539 12363 ft 305 kts 336°
2026-04-16 22:34 49.97898 8.32842 12646 ft 334 kts 358°
2026-04-16 22:34 50.00221 8.33716 13095 ft 355 kts 24°
2026-04-16 22:34 50.02434 8.35533 13832 ft 362 kts 26°
2026-04-16 22:35 50.04668 8.37396 14558 ft 367 kts 26°
2026-04-16 22:35 50.06931 8.39285 15289 ft 371 kts 25°
2026-04-16 22:35 50.09223 8.41195 16011 ft 375 kts 25°
2026-04-16 22:35 50.11535 8.43121 16705 ft 379 kts 25°
2026-04-16 22:36 50.13874 8.45069 17402 ft 383 kts 25°
2026-04-16 22:36 50.16242 8.47039 18102 ft 387 kts 25°
2026-04-16 22:36 50.18633 8.49033 18746 ft 392 kts 25°
2026-04-16 22:36 50.21046 8.51051 19314 ft 395 kts 25°
2026-04-16 22:37 50.23483 8.53091 19891 ft 399 kts 25°
2026-04-16 22:37 50.25939 8.55153 20455 ft 402 kts 25°
2026-04-16 22:37 50.28413 8.57235 21005 ft 406 kts 25°
2026-04-16 22:37 50.30917 8.59343 21580 ft 410 kts 25°
2026-04-16 22:38 50.33438 8.61464 22130 ft 414 kts 25°
2026-04-16 22:38 50.35986 8.63610 22673 ft 417 kts 25°
2026-04-16 22:38 50.38552 8.65771 23196 ft 421 kts 25°
2026-04-16 22:38 50.41153 8.67968 23728 ft 425 kts 25°
2026-04-16 22:39 50.43762 8.70178 24171 ft 428 kts 25°
2026-04-16 22:39 50.46392 8.72406 24608 ft 431 kts 25°
2026-04-16 22:39 50.49004 8.74617 25053 ft 434 kts 25°
2026-04-16 22:39 50.51672 8.76879 25477 ft 437 kts 25°
2026-04-16 22:40 50.54346 8.79155 25897 ft 439 kts 25°
2026-04-16 22:40 50.57047 8.81456 26323 ft 442 kts 25°
2026-04-16 22:40 50.59759 8.83766 26738 ft 445 kts 25°
2026-04-16 22:40 50.62492 8.86098 27151 ft 448 kts 25°
2026-04-16 22:41 50.65235 8.88443 27565 ft 450 kts 25°
2026-04-16 22:41 50.67998 8.90805 27980 ft 453 kts 25°
2026-04-16 22:41 50.69845 8.92387 28247 ft 455 kts 25°
2026-04-16 22:41 50.72642 8.94788 28637 ft 458 kts 25°
2026-04-16 22:42 50.75447 8.97200 29014 ft 461 kts 25°
2026-04-16 22:42 50.79197 9.00426 29499 ft 464 kts 25°
2026-04-16 22:42 50.81116 9.02080 29738 ft 466 kts 25°
2026-04-16 22:42 50.83974 9.04546 30087 ft 469 kts 25°
2026-04-16 22:43 50.86840 9.07024 30413 ft 471 kts 25°
2026-04-16 22:43 50.89727 9.09520 30706 ft 474 kts 25°
2026-04-16 22:43 50.92622 9.12028 30988 ft 476 kts 25°
2026-04-16 22:43 50.95535 9.14555 31319 ft 477 kts 25°
2026-04-16 22:44 50.98442 9.17085 31717 ft 476 kts 25°
2026-04-16 22:44 51.01306 9.19580 32122 ft 475 kts 25°
2026-04-16 22:44 51.04208 9.22108 32517 ft 475 kts 25°
2026-04-16 22:44 51.07085 9.24618 32894 ft 475 kts 25°
2026-04-16 22:45 51.10011 9.27022 33285 ft 471 kts 19°
2026-04-16 22:45 51.13075 9.28782 33692 ft 465 kts 11°
2026-04-16 22:45 51.16218 9.29935 34070 ft 463 kts
2026-04-16 22:45 51.19371 9.31012 34413 ft 463 kts
2026-04-16 22:46 51.22517 9.32092 34761 ft 463 kts
2026-04-16 22:46 51.25659 9.33176 35091 ft 463 kts
2026-04-16 22:46 51.28813 9.34270 35223 ft 463 kts
2026-04-16 22:46 51.31963 9.35369 35252 ft 462 kts
2026-04-16 22:47 51.38238 9.37559 35253 ft 461 kts
2026-04-16 22:47 51.44516 9.39745 35248 ft 462 kts
2026-04-16 22:48 51.50809 9.41946 35247 ft 462 kts
2026-04-16 22:48 51.57057 9.44148 35249 ft 463 kts
2026-04-16 22:49 51.63394 9.46381 35252 ft 463 kts
2026-04-16 22:49 51.69655 9.48591 35254 ft 464 kts
2026-04-16 22:50 51.75960 9.50829 35258 ft 464 kts
2026-04-16 22:50 51.82269 9.53237 35252 ft 468 kts 14°
2026-04-16 22:51 51.88227 9.57656 35253 ft 473 kts 23°
2026-04-16 22:51 51.94093 9.62534 35251 ft 474 kts 23°
2026-04-16 22:52 51.99939 9.67379 35255 ft 474 kts 23°
2026-04-16 22:52 52.05814 9.72256 35257 ft 475 kts 23°
2026-04-16 22:53 52.11699 9.77159 35260 ft 475 kts 23°
2026-04-16 22:53 52.17569 9.82082 35260 ft 475 kts 24°
2026-04-16 22:54 52.23446 9.87027 35257 ft 474 kts 21°
2026-04-16 22:54 52.29636 9.90423 35189 ft 467 kts 10°
2026-04-16 22:55 52.32769 9.91790 34569 ft 466 kts 11°
2026-04-16 22:55 52.35905 9.93167 33776 ft 467 kts 11°
2026-04-16 22:55 52.39044 9.94551 32898 ft 468 kts 11°
2026-04-16 22:55 52.42193 9.95939 32036 ft 469 kts 11°
2026-04-16 22:56 52.45308 9.97313 31191 ft 470 kts 11°
2026-04-16 22:56 52.48462 9.98706 30427 ft 469 kts 11°
2026-04-16 22:56 52.51598 10.00099 29734 ft 464 kts 11°
2026-04-16 22:56 52.54690 10.01480 29053 ft 459 kts 12°
2026-04-16 22:57 52.57760 10.02851 28397 ft 453 kts 12°
2026-04-16 22:57 52.60792 10.04204 27773 ft 448 kts 12°
2026-04-16 22:57 52.63784 10.05540 27148 ft 443 kts 12°
2026-04-16 22:57 52.66746 10.06862 26545 ft 439 kts 12°
2026-04-16 22:58 52.69677 10.08172 25958 ft 434 kts 12°
2026-04-16 22:58 52.72576 10.09474 25376 ft 429 kts 12°
2026-04-16 22:58 52.75451 10.10767 24800 ft 424 kts 12°
2026-04-16 22:58 52.78317 10.11681 24266 ft 416 kts
2026-04-16 22:59 52.81149 10.11884 23697 ft 410 kts 358°
2026-04-16 22:59 52.83989 10.11966 23056 ft 406 kts 358°
2026-04-16 22:59 52.86801 10.12061 22440 ft 402 kts 358°
2026-04-16 22:59 52.89593 10.12160 21854 ft 399 kts 358°
2026-04-16 23:00 52.92350 10.12256 21302 ft 395 kts 358°
2026-04-16 23:00 52.95086 10.12352 20736 ft 391 kts 358°
2026-04-16 23:00 52.97797 10.12446 20192 ft 388 kts 358°
2026-04-16 23:00 53.00484 10.12537 19660 ft 385 kts 358°
2026-04-16 23:01 53.03161 10.12623 19147 ft 382 kts 358°
2026-04-16 23:01 53.05804 10.12931 18666 ft 382 kts
2026-04-16 23:01 53.08393 10.13869 18116 ft 380 kts
2026-04-16 23:01 53.10965 10.14811 17581 ft 377 kts
2026-04-16 23:02 53.13522 10.15746 17063 ft 375 kts
2026-04-16 23:02 53.16061 10.16678 16559 ft 372 kts
2026-04-16 23:02 53.18584 10.17612 16068 ft 369 kts
2026-04-16 23:02 53.21082 10.18539 15595 ft 367 kts
2026-04-16 23:03 53.23534 10.19449 15134 ft 364 kts
2026-04-16 23:03 53.26024 10.20373 14644 ft 360 kts
2026-04-16 23:03 53.28429 10.21263 13957 ft 356 kts
2026-04-16 23:03 53.30846 10.22157 13383 ft 355 kts
2026-04-16 23:04 53.33250 10.23048 12878 ft 353 kts
2026-04-16 23:04 53.35636 10.23934 12336 ft 350 kts
2026-04-16 23:04 53.38009 10.24816 11818 ft 348 kts
2026-04-16 23:04 53.40366 10.25694 11303 ft 346 kts
2026-04-16 23:05 53.42719 10.26570 10752 ft 342 kts 10°
2026-04-16 23:05 53.45023 10.27432 10008 ft 335 kts 11°
2026-04-16 23:05 53.47211 10.28258 9864 ft 309 kts 10°
2026-04-16 23:05 53.49256 10.29027 9466 ft 295 kts 10°
2026-04-16 23:06 53.51244 10.29768 8878 ft 289 kts 10°
2026-04-16 23:06 53.53193 10.30496 8265 ft 286 kts 11°
2026-04-16 23:06 53.55090 10.31207 7857 ft 274 kts 11°
2026-04-16 23:06 53.56884 10.31883 7695 ft 255 kts 11°
2026-04-16 23:07 53.58590 10.32530 7301 ft 249 kts 11°
2026-04-16 23:07 53.60266 10.33163 6822 ft 245 kts 11°
2026-04-16 23:07 53.61922 10.33785 6299 ft 243 kts 11°
2026-04-16 23:07 53.63571 10.34404 5826 ft 241 kts 11°
2026-04-16 23:08 53.65210 10.35019 5512 ft 240 kts 12°
2026-04-16 23:08 53.66834 10.35630 5053 ft 239 kts 12°
2026-04-16 23:08 53.68435 10.36352 4613 ft 238 kts 19°
2026-04-16 23:08 53.69956 10.37438 4148 ft 236 kts 27°
2026-04-16 23:09 53.71362 10.38856 3693 ft 235 kts 35°
2026-04-16 23:09 53.72786 10.40183 3273 ft 233 kts 15°
2026-04-16 23:09 53.74384 10.40256 3003 ft 232 kts 345°
2026-04-16 23:09 53.75863 10.39182 3010 ft 233 kts 325°
2026-04-16 23:10 53.77040 10.37367 3002 ft 231 kts 306°
2026-04-16 23:10 53.77803 10.35003 3001 ft 229 kts 286°
2026-04-16 23:10 53.78068 10.32373 3010 ft 227 kts 267°
2026-04-16 23:10 53.77816 10.29760 3012 ft 224 kts 249°
2026-04-16 23:11 53.77082 10.27454 3009 ft 223 kts 231°
2026-04-16 23:11 53.76101 10.25434 2996 ft 222 kts 229°
2026-04-16 23:11 53.75115 10.23423 2999 ft 218 kts 230°
2026-04-16 23:11 53.74188 10.21528 3006 ft 200 kts 229°
2026-04-16 23:12 53.73331 10.19775 3015 ft 190 kts 229°
2026-04-16 23:12 53.72504 10.18086 2899 ft 185 kts 229°
2026-04-16 23:12 53.71692 10.16428 2670 ft 182 kts 229°
2026-04-16 23:12 53.70907 10.14825 2422 ft 170 kts 228°
2026-04-16 23:13 53.70174 10.13332 2202 ft 162 kts 228°
2026-04-16 23:13 53.69461 10.11878 1990 ft 159 kts 228°
2026-04-16 23:13 53.68768 10.10466 1803 ft 153 kts 228°
2026-04-16 23:13 53.68121 10.09110 1528 ft 146 kts 228°
2026-04-16 23:14 53.67467 10.07847 1318 ft 141 kts 225°
2026-04-16 23:14 53.66845 10.06580 1133 ft 140 kts 228°
2026-04-16 23:14 53.66223 10.05308 813 ft 138 kts 227°
2026-04-16 23:14 53.65585 10.04041 704 ft 148 kts 229°
2026-04-16 23:15 53.64293 10.01389 298 ft 148 kts 230°
2026-04-16 23:15 53.63652 10.00086 109 ft 144 kts 231°
2026-04-16 23:15 53.63051 9.98859 47 ft 122 kts 231°
2026-04-16 23:16 53.62678 9.98094 42 ft 42 kts 230°
2026-04-16 23:16 53.62532 9.97808 41 ft 29 kts 222°
2026-04-16 23:16 53.62447 9.97826 43 ft 7 kts 133°
2026-04-16 23:16 53.62435 9.97966 47 ft 14 kts 79°
2026-04-16 23:17 53.62481 9.98127 47 ft 21 kts 54°
2026-04-16 23:17 53.62583 9.98332 47 ft 20 kts 51°
2026-04-16 23:17 53.62678 9.98528 47 ft 23 kts 51°
2026-04-16 23:17 53.62777 9.98727 47 ft 21 kts 50°
2026-04-16 23:18 53.62878 9.98928 47 ft 24 kts 50°
2026-04-16 23:18 53.62988 9.99155 47 ft 26 kts 50°
2026-04-16 23:18 53.63094 9.99387 47 ft 23 kts 55°
2026-04-16 23:18 53.63148 9.99519 46 ft 13 kts 53°
2026-04-16 23:19 53.63204 9.99643 48 ft 13 kts 51°
2026-04-16 23:19 53.63282 9.99771 48 ft 18 kts 44°
2026-04-16 23:19 53.63367 9.99942 48 ft 20 kts 50°
2026-04-16 23:19 53.63430 10.00122 48 ft 15 kts 107°
2026-04-16 23:20 53.63370 10.00238 48 ft 9 kts 99°
2026-04-16 23:20 53.63372 10.00337 46 ft 6 kts 85°
2026-04-16 23:20 53.63373 10.00350 47 ft 0 kts 86°